Find Starlink 36164

NORAD ID: 67127 Int'l Des: 2025-299 Owner: SPXS Country: US Constellation: starlink operational
LEOCIRCULAR

当前视图

正在加载3D地球...

About Starlink 36164

Starlink 36164 (NORAD 67127) is a starlink constellation satellite (v2 mini) launched Dec 15, 2025 by SPXS of US. It operates in LEO, CIRCULAR orbit with a mass of 575.00 kg.

关于 Starlink 36164

正在加载描述...

即将过境

Passes for default location (London). Set your location on the main map for personalized predictions.

高度历史

Loading altitude history...

两行轨道根数

1 67127U 25299AB 26194.97664789 .00008503 00000-0 31808-3 0 9997
2 67127 42.9989 175.4844 0002527 298.0101 62.0495 15.27586972 32436
Epoch: Jul 13, 2026 • Age: 15 hours

当前状态

高度 483.4 km
远地点 / 近地点 N/A
速度 7.63 km/s
星下点 12.77°N, 168.43°W
发射日期 Dec 15, 2025
运行时间 0.5 years
类型 internet

技术详情

分类 Payload
质量 575.00 kg
干质量 530.00 kg
总质量 575.00 kg
长度 0.30 m
直径 4.10 m
跨度 29.00 m
形状 Box + pan
制造商 SPXS
平台类型 Starlink V2MO
阶段状态 In Orbit
所有者/国家 SPXS/US

Most Searched